Other Public Products
Issued by NWS Grand Forks, ND

Home | Current Version | Previous Version | Graphics & Text | Print | Product List | Glossary On
Versions: 1 2 3 4 5 6 7 8 9 10 11 12 13 14 15 16 17 18 19 20 21 22 23 24 25 26 27 28 29 30 31 32 33 34 35 36 37 38 39 40 41 42 43 44 45 46 47 48 49 50
000
FPUS83 KFGF 201631
OPUFGF
PRAIRIE TO PINES WEATHER ROUNDUP
NATIONAL WEATHER SERVICE EASTERN NORTH DAKOTA/GRAND FORKS ND
1100 AM CDT SAT SEP 20 2014

 **SATELLITE DATA USED TO AUGMENT SKY COVER AT AUTOMATED STATIONS**
 *****  WEATHER ACROSS EASTERN NORTH DAKOTA  *****

CITY           SKY/WX    TMP DP  RH WIND       PRES   REMARKS
GRAND FORKS    PTSUNNY   63  55  75 S10       29.76F
GRAND FORKS AF FAIR      63  58  84 SW6       29.76F
GRAND CITY NWS   N/A     61 N/A N/A S9          N/A
BUXTON           N/A     66  59  77 SW8         N/A
DEVILS LAKE    CLOUDY    55  48  76 NW16      29.82R
FARGO          FAIR      65  55  70 S8        29.81F
WAHPETON ARPT  FAIR      68  52  56 W9        29.83F
$$

 *****  WEATHER ACROSS CENTRAL AND WESTERN NORTH DAKOTA  *****

CITY           SKY/WX    TMP DP  RH WIND       PRES   REMARKS
JAMESTOWN      FAIR      67  57  70 SW7       29.79F
BISMARCK       PTSUNNY   65  53  65 NW29G38   29.93R
MINOT          FAIR      58  51  78 W20G26    29.87R
MINOT AFB      FAIR      59  55  87 NW21G29   29.87R
GARRISON         N/A     59  54  83 NW8       29.88F
WILLISTON      SUNNY     65  47  52 NW25      30.00R
DICKINSON      SUNNY     63  48  58 NW17      30.00R
HETTINGER      SUNNY     66  45  46 NW29G37   30.02R
$$

 *****  OTHER OBSERVATIONS NORTHEAST NORTH DAKOTA  *****

CITY           SKY/WX    TMP DP  RH WIND       PRES   REMARKS
WALHALLA       LGT RAIN  59  57  94 NW13G21   29.75S
LANGDON        RAIN      54  52  94 NW21      29.77R
CAVALIER       FAIR      55  54  94 SW6       29.74F
GRAFTON        LGT RAIN  57  55  94 S6        29.75S
CANDO          CLOUDY    54  54 100 NW7       29.82F
FORT TOTTEN    NOT AVBL
ROLLA          PTSUNNY   54  54 100 NW13G20   29.83R
RUGBY          FAIR      55  55 100 NW12      29.84R
 ***** THE ABOVE OBSERVATIONS ARE NON NWS ARE NOT QUALITY
        CONTROLLED AND MAY MIS-REPORT RAIN FOR SNOW...
$$

 *****  OTHER OBSERVATIONS SOUTHEAST NORTH DAKOTA *****

CITY           SKY/WX    TMP DP  RH WIND       PRES   REMARKS
COOPERSTOWN    NOT AVBL
VALLEY CITY    FAIR      64  59  82 W8        29.80F
OAKES            N/A     72  59  64 SW12      29.84F
GWINNER        SUNNY     72  57  60 SW12      29.84F
BUFFALO          N/A     69  55  60 W10         N/A
WYNDMERE         N/A    N/A N/A N/A SW9         N/A
 ***** THE ABOVE OBSERVATIONS ARE NON NWS ARE NOT QUALITY
       CONTROLLED AND MAY MIS-REPORT RAIN FOR SNOW...
$$

  *****  WEATHER ACROSS NORTHERN MINNESOTA  *****

CITY           SKY/WX    TMP DP  RH WIND       PRES   REMARKS
FLAG ISLAND    CLOUDY    52  46  82 NW9       29.74S
WARROAD        FAIR      55  48  76 W6        29.76F
ROSEAU         FAIR      55  48  76 W5        29.76F
HALLOCK        PTSUNNY   59  55  88 S9        29.73F
THF RVR FALLS  PTSUNNY   59  54  82 SW7       29.77F
HALSTAD          N/A     64  52  63 S10         N/A
FOSSTON        CLOUDY    59  54  82 W3        29.80F
BAUDETTE       PTSUNNY   54  47  77 VRB7      29.76R
WASKISH        FAIR      57  48  72 W6        29.77F
CROOKSTON      FAIR      61  54  77 SW8       29.77F
$$
  *****  WEATHER ACROSS CENTRAL AND WEST MINNESOTA  *****

CITY           SKY/WX    TMP DP  RH WIND       PRES   REMARKS
BEMIDJI        CLOUDY    58  52  79 W12       29.79F
PARK RAPIDS    CLOUDY    59  54  83 W12       29.81S
WADENA         CLOUDY    61  55  82 W6        29.82F
DETROIT LAKES  FAIR      61  54  77 W7        29.83F
MOORHEAD       FAIR      64  59  82 SW8       29.81F
FERGUS FALLS   FAIR      66  54  63 W7        29.84F
ELBOW LAKE     FAIR      64  56  74 W9        29.85F
MORRIS MN      FAIR      68  57  68 W7        29.85F
STAPLES        CLOUDY    61  54  77 NW10      29.83S
WHEATON        FAIR      66  55  68 SW9       29.86F
$$
  *****  WEATHER ELSEWHERE ACROSS MINNESOTA  *****

CITY           SKY/WX    TMP DP  RH WIND       PRES   REMARKS
DULUTH         CLOUDY    59  52  77 NW15      29.73R
INTRNTL FALLS  CLOUDY    53  51  93 W6        29.74R FOG
ELY            CLOUDY    54  52  94 W6        29.72R
CLOQUET        CLOUDY    61  52  72 W10G16    29.76R
BRAINERD       CLOUDY    61  53  75 NW10      29.82S
HIBBING        PTSUNNY   60  48  64 NW15G22   29.74S
ALEXANDRIA     FAIR      62  55  77 NW9       29.87R
SAINT CLOUD    FAIR      69  56  62 NW12      29.82R
MINNEAPOLIS    FAIR      70  58  65 W13       29.81S
$$

  *****  WEATHER ACROSS SOUTH DAKOTA  *****

CITY           SKY/WX    TMP DP  RH WIND       PRES   REMARKS
SIOUX FALLS    FAIR      74  59  59 NW7       29.92R
BROOKINGS      NOT AVBL
WATERTOWN      FAIR      69  58  67 W9        29.90S
HURON          SUNNY     73  57  57 SW8       29.91F
SISSETON         N/A     72  58  61 W10       29.85F
ABERDEEN       SUNNY     71  57  61 SW8       29.87F
MITCHELL       SUNNY     71  59  65 SW7       29.94S
PIERRE         SUNNY     71  54  54 W10       29.95S
MOBRIDGE       MOSUNNY   70  53  54 NW12      29.89F
RAPID CITY     SUNNY     73  45  36 NW22      30.11R
$$

  *****  SOME WEATHER IN NEARBY STATES *****

CITY           SKY/WX    TMP DP  RH WIND       PRES   REMARKS
GLASGOW MT     PTSUNNY   61  48  62 W13       30.12R
GREAT FALLS MT SUNNY     62  44  51 E5        30.25R
CHEYENNE WY    SUNNY     66  45  46 E3        30.29S
SCOTTSBLUFF NE SUNNY     68  51  54 W6        30.20R
OMAHA NE       FAIR      76  67  73 SW6       29.93S
DES MOINES IA  PTSUNNY   75  67  76 W12       29.89F
DAVENPORT IA   FAIR      71  64  78 SW10      29.89R
CHICAGO IL     PTSUNNY   72  62  71 SW13      29.85F
EAU CLAIRE WI  CLOUDY    69  59  70 W13       29.77R
LA CROSSE WI   PTSUNNY   71  63  75 SW5       29.79R
$$

  *****  SOME NATIONAL WEATHER *****

CITY           SKY/WX    TMP DP  RH WIND       PRES   REMARKS
LA GUARDIA NY  PTSUNNY   72  56  57 SE13G20   30.25F
RALEIGH NC     FAIR      75  59  57 E7        30.20S
ATLANTA GA     PTSUNNY   74  63  68 E13       30.16F
NEW ORLEANS LA FAIR      84  70  62 E15       30.00R
OKLAHOMA CITY  PTSUNNY   81  70  69 S7        30.05R
ALBUQUERQUE NM SUNNY     71  57  61 N9        30.19R
SALT LAKE CITY SUNNY     68  49  50 SE5       30.18S
LOS ANGELES CA CLOUDY    70  62  76 CALM      29.95R
BOISE ID       SUNNY     68  46  45 SE13      30.14R
SEATTLE WA     CLOUDY    59  56  89 N9        30.11S FOG
$$

*** WEATHER ACROSS MANITOBA...SASKATCHEWAN AND ONTARIO ***
                ***ONTARIO***

CITY           SKY/WX    TMP DP  RH WIND       PRES   REMARKS
GERALDTON      LGT RAIN  54  54 100 N12       29.55R
THUNDER BAY    PTSUNNY   66  59  77 NW12G22   29.58R
SIOUX LOOKOUT  PTSUNNY   57  52  82 NW6       29.67R
TORONTO        MOSUNNY   73  59  60 S20G31    29.93F
BIG TROUT LK   CLOUDY    45  34  65 NW9       29.70S
PICKLE LAKE    DRIZZLE   45  43  93 N7        29.69R FOG
DRYDEN         MOSUNNY   57  52  82 NW9       29.69R
KENORA         PTSUNNY   54  48  82 W3        29.73S
$$
                *** MANITOBA***

CITY           SKY/WX    TMP DP  RH WIND       PRES   REMARKS
BRANDON        PTSUNNY   54  52  94 W7        29.78F
DAUPHIN        PTSUNNY   55  52  88 W10       29.73S
ISLAND LAKE    PTSUNNY   46  37  71 CALM      29.73F
PILOT MOUND    NOT AVBL
THE PAS        MOSUNNY   57  48  72 W13       29.67R
THOMPSON       CLOUDY   N/A N/A N/A E6          N/A
WINNIPEG       CLOUDY    54  50  87 S8        29.72F
LYNN LAKE      CLOUDY    43  41  93 E9        29.69R FOG
CHURCHILL      CLOUDY    39  36  87 N10       29.78R
GILLAM         PTSUNNY   39  34  81 N3        29.77R
$$
                ***SASKATCHEWAN***

CITY           SKY/WX    TMP DP  RH WIND       PRES   REMARKS
ESTEVAN        MOSUNNY   59  55  88 NW16G23   29.95R
KINDERSLEY     MOSUNNY   55  41  58 W18       30.10R
LLOYDMINSTER   MOSUNNY   57  39  51 W18G28    30.03R
PRINCE ALBERT  PTSUNNY   59  45  58 NW15G29   29.84
REGINA         MOSUNNY   59  48  67 NW20G26   29.95S
YORKTON        SUNNY     59  46  63 NW20      29.81R


USA.gov is the U.S. government's official web portal to all federal, state and local government web resources and services.